#timestamp,LO_Frequency,Hit,StdDev 
1575259215.5,286047005.7,P
1575259235.3,286047004.1,N
1575259255.2,286047001.9,N
1575259275.0,286047002.8,N
1575259275.9,286047002.8,N
1575259295.8,286047001.2,N
1575259315.6,286047000.6,N
1575259335.4,286047002.7,N
1575259385.3,286046998.3,E
1575259395.2,286047000.9,N
1575259415.1,286047002.2,P
1575259416.0,286047002.2,P
1575259435.8,286047001.7,N
1575259455.6,286047004.2,Y
1575259475.5,286047002.2,P
1575259495.3,286047001.9,P
1575259515.2,286047002.0,P
1575259535.9,286047002.6,Y
1575259555.7,286047000.0,P
1575259575.6,286047000.3,N
1575259595.4,286046998.3,N
1575259615.3,286047000.5,N
1575259635.1,286046998.1,N
1575259636.0,286046998.1,N
1575259655.8,286046998.6,N
1575259675.7,286046998.3,N
1575259695.5,286046998.5,N
1575259715.3,286046998.3,N
1575259735.2,286046998.8,N
1575259755.0,286046998.5,N
1575259755.9,286046998.5,N
1575259775.8,286047001.2,N
1575259795.6,286047001.2,N
1575259815.4,286046998.4,N
1575259835.3,286047000.6,N
1575259855.1,286047002.1,N
1575259875.8,286047002.4,N
1575259895.7,286047003.7,N
1575259915.5,286047001.3,N
1575259935.4,286047002.6,N
1575259955.2,286047000.6,N
1575259975.0,286047000.7,N
1575259975.9,286047000.7,N
1575259995.8,286047002.3,N
1575260015.6,286047001.3,N
1575260035.5,286047011.9,Y
1575260055.3,286047002.3,P
1575260075.1,286047004.3,P
1575260095.9,286046999.8,N
1575260115.7,286047004.3,N
1575260135.5,286047001.9,N
1575260155.4,286047003.8,N
1575260175.2,286047001.9,N
1575260195.1,286047001.5,N
1575260196.0,286047001.5,N
1575260215.8,286047000.2,N
1575260235.6,286047002.2,N
1575260255.5,286047003.2,N
1575260275.3,286047001.7,N
1575260295.2,286047002.6,N
1575260315.9,286046999.7,N
1575260335.7,286047002.1,N
1575260355.6,286047003.9,N
1575260375.4,286047002.7,N
1575260395.2,286047001.7,N
1575260415.1,286047001.3,N
1575260416.0,286047001.3,N
1575260435.8,286047004.0,Y
1575260455.7,286047000.1,P
1575260475.5,286047000.8,N
1575260495.3,286047000.3,N
1575260515.2,286047002.5,Y
1575260535.0,286047000.5,P
1575260535.9,286047000.5,P
1575260555.8,286047001.0,P
1575260575.6,286046997.4,Y
1575260595.4,286046993.3,P
1575260615.3,286046993.7,N
1575260635.1,286046995.3,N
1575260655.9,286046993.3,N
1575260675.7,286046994.2,N
1575260695.5,286046994.1,N
1575260715.4,286046993.3,N
1575260735.2,286046995.6,N
1575260755.0,286046994.6,N
1575260755.9,286046994.6,N
1575260775.8,286046997.6,N
1575260795.6,286046996.6,N
1575260815.5,286046997.8,N
1575260835.3,286046997.3,N
1575260855.1,286046996.3,N
1575260875.9,286046997.9,N
1575260895.7,286046999.4,N
1575260915.5,286046997.8,N
1575260935.4,286046993.3,Y
1575260955.2,286046998.5,P
1575260975.1,286046998.1,N
1575260976.0,286046998.1,N
1575260995.8,286046998.9,N
1575261015.6,286047001.1,N
1575261035.5,286047001.1,N
1575261055.3,286046998.6,N
1575261075.2,286046999.7,N
1575261095.9,286047002.5,N
1575261115.7,286047002.3,N
1575261135.6,286046999.7,N
1575261155.4,286046998.1,N
1575261175.2,286047001.5,N
1575261195.1,286047000.9,N
1575261196.0,286047000.9,N
1575261215.8,286046999.1,N
1575261235.7,286047001.1,N
1575261255.5,286046999.3,N
1575261275.3,286047000.6,N
1575261295.2,286046998.6,N
1575261315.0,286046998.9,N
1575261315.9,286046998.9,N
1575261335.7,286047001.1,N
1575261355.6,286046999.2,N
1575261375.4,286046997.7,N
1575261395.3,286046996.5,N
1575261415.1,286046997.0,N
1575261435.8,286046996.7,N
1575261455.7,286046996.6,N
1575261475.5,286046997.3,N
1575261495.3,286046996.8,N
1575261515.2,286046997.5,N
1575261535.0,286046997.4,N
1575261535.9,286046997.4,N
1575261555.8,286046995.5,N
1575261575.6,286046995.4,N
1575261595.4,286046993.7,Y
1575261615.3,286046996.6,P
1575261635.1,286046998.7,N
1575261655.9,286046999.2,N
1575261675.7,286046997.1,N
1575261695.5,286046997.8,N
1575261715.4,286046997.6,N
1575261735.2,286046997.5,N
1575261755.0,286046998.5,N
1575261755.9,286046998.5,N
1575261775.8,286047001.2,N
1575261795.6,286047001.2,N
1575261815.5,286046998.4,N
1575261835.3,286047000.3,N
1575261855.1,286047000.7,N
1575261875.9,286046999.0,N
1575261895.7,286046998.9,N
1575261915.6,286046997.0,N
1575261935.4,286046998.5,N
1575261955.2,286046998.4,N
1575261975.1,286047001.2,N
1575261976.0,286047001.2,N
1575261995.8,286046998.3,N
1575262015.6,286047000.3,N
1575262035.5,286046999.8,N
1575262055.3,286047001.0,N
1575262075.2,286047000.4,N
1575262095.9,286046998.9,N
1575262115.7,286046998.3,N
1575262135.6,286047001.0,N
1575262155.4,286046998.4,N
1575262175.2,286046998.1,N
1575262195.1,286046999.3,N
1575262196.0,286046999.3,N
1575262215.8,286046999.4,N
1575262235.7,286046999.6,N
1575262255.5,286046997.1,N
1575262275.3,286046999.3,N
1575262295.2,286047001.0,N
1575262315.0,286046999.7,N
1575262315.9,286046999.7,N
1575262335.8,286047000.1,N
1575262355.6,286047002.1,N
1575262375.4,286047000.1,N
1575262395.3,286047000.3,N
1575262415.1,286047000.3,N
1575262435.8,286047000.6,N
1575262455.7,286047000.9,N
1575262475.5,286047001.0,N
1575262495.4,286047000.4,N
1575262515.2,286047002.6,N
1575262535.0,286047004.0,Y
1575262535.9,286047004.0,P
1575262555.8,286047001.3,N
1575262575.6,286047003.5,N
1575262595.5,286047004.3,N
1575262615.3,286047002.5,N
1575262635.1,286047002.6,N
1575262655.9,286047002.5,N
1575262675.7,286047001.5,N
1575262695.6,286047000.4,N
1575262715.4,286047000.4,N
1575262735.2,286047000.5,N
1575262755.1,286047000.1,N
1575262756.0,286047000.1,N
1575262775.8,286047000.9,N
1575262795.6,286047003.9,N
